Kyiv, Ukraine

3:31 AM EEST on August 16, 2018 (GMT +0300)
Zhuliany

Weather History for UKKK - May, 2018

Change the Weather History Date:

Thursday, May 17, 2018

  Actual Average (UKBB) Record (UKBB)
Temperature  
Mean Temperature 64 °F -  
Max Temperature 74 °F 68 °F 82 °F (2007)
Min Temperature 54 °F 46 °F 35 °F (2000)
Degree Days  
Heating Degree Days 1    
Growing Degree Days 14 (Base 50)    
Moisture  
Dew Point 48 °F    
Average Humidity 54    
Maximum Humidity 82    
Minimum Humidity 27    
Precipitation  
Precipitation 0.00 in 0.08 in - ()
Sea Level Pressure  
Sea Level Pressure 29.89 in    
Wind  
Wind Speed 5 mph ()    
Max Wind Speed 9 mph    
Max Gust Speed -    
Visibility 11.3 miles    
Events      
Averages and records for this station are not official NWS values.
T = Trace of Precipitation, MM = Missing Value Source: Averaged Metar Reports

Daily Weather History Graph

Daily Weather History Graph

Search for Another Location

Airport or City:

Astronomy

May. 17, 2018 Rise Set
Actual Time 5:08 AM EEST 8:41 PM EEST
Civil Twilight 4:28 AM EEST 9:22 PM EEST
Nautical Twilight 3:33 AM EEST 10:16 PM EEST
Astronomical Twilight 2:17 AM EEST 11:35 PM EEST
Moon 6:54 AM EEST (5/17) 10:55 PM EEST (5/17)
Length of Visible Light 16h 54m
Length of Day
15h 33m
Waxing Crescent, 5% of the Moon is Illuminated
May 17
Waxing Crescent
May 22
First Quarter
May 29
Full
Jun 6
Last Quarter
Jun 13
New

Hourly Weather History & Observations

Time (EEST) Temp. Dew Point Humidity Pressure Visibility Wind Dir Wind Speed Gust Speed Precip Events Conditions
12:00 AM 67 °F 46 °F 36% 29.86 in 12 mi SSW 8.9 mph - -  
12:00 AM 66.2 °F 46.4 °F 49% 29.86 in - South 6.7 mph - N/A   Clear
12:30 AM 66.2 °F 44.6 °F 46% 29.86 in - South 4.5 mph - N/A   Clear
1:00 AM 64.4 °F 44.6 °F 49% 29.86 in - South 4.5 mph - N/A   Clear
1:30 AM 62.6 °F 44.6 °F 52% 29.86 in - South 4.5 mph - N/A   Clear
2:00 AM 62.6 °F 46.4 °F 55% 29.86 in - South 4.5 mph - N/A   Clear
2:30 AM 60.8 °F 46.4 °F 59% 29.86 in - South 4.5 mph - N/A   Clear
3:00 AM 61 °F 47 °F 51% 29.87 in 12 mi SSW 6.7 mph - -  
3:00 AM 60.8 °F 48.2 °F 63% 29.86 in - South 4.5 mph - N/A   Clear
3:30 AM 59.0 °F 48.2 °F 67% 29.86 in - SSW 4.5 mph - N/A   Clear
4:00 AM 59.0 °F 48.2 °F 67% 29.89 in - SSW 4.5 mph - N/A   Clear
4:30 AM 57.2 °F 48.2 °F 72% 29.89 in - Variable 2.2 mph - N/A   Clear
5:00 AM 55.4 °F 48.2 °F 77% 29.89 in - SW 4.5 mph - N/A   Clear
5:30 AM 55.4 °F 48.2 °F 77% 29.89 in - SW 6.7 mph - N/A   Clear
6:00 AM 55.4 °F 50.0 °F 82% 29.89 in - Variable 2.2 mph - N/A   Clear
6:30 AM 57.2 °F 50.0 °F 77% 29.92 in - SW 2.2 mph - N/A   Clear
7:00 AM 57.2 °F 51.8 °F 82% 29.92 in - WSW 4.5 mph - N/A   Clear
7:30 AM 59.0 °F 51.8 °F 77% 29.92 in - WSW 6.7 mph - N/A   Clear
8:00 AM 60.8 °F 51.8 °F 72% 29.92 in - WSW 4.5 mph - N/A   Clear
8:30 AM 62.6 °F 53.6 °F 72% 29.92 in - WSW 4.5 mph - N/A   Clear
9:00 AM 63 °F 52 °F 58% 29.93 in 12 mi WSW 4.5 mph - -  
9:00 AM 62.6 °F 51.8 °F 68% 29.92 in - SW 6.7 mph - N/A   Clear
9:30 AM 64.4 °F 51.8 °F 64% 29.92 in - SW 4.5 mph - N/A   Clear
10:00 AM 66.2 °F 50.0 °F 56% 29.92 in - SSW 6.7 mph - N/A   Clear
10:30 AM 66.2 °F 50.0 °F 56% 29.95 in - WSW 6.7 mph - N/A   Clear
11:30 AM 68.0 °F 50.0 °F 52% 29.95 in - WSW 6.7 mph - N/A   Clear
12:00 PM 69 °F 48 °F 36% 29.94 in 12 mi WSW 6.7 mph - -   Mostly Cloudy
12:00 PM 68.0 °F 50.0 °F 52% 29.95 in - West 6.7 mph - N/A   Clear
12:30 PM 68.0 °F 48.2 °F 49% 29.95 in 6.2 mi West 6.7 mph - N/A   Scattered Clouds
1:00 PM 69.8 °F 48.2 °F 46% 29.92 in - WSW 6.7 mph - N/A   Clear
1:30 PM 71.6 °F 48.2 °F 43% 29.92 in - South 6.7 mph - N/A   Clear
2:00 PM 71.6 °F 48.2 °F 43% 29.92 in - SW 8.9 mph - N/A   Clear
2:30 PM 73.4 °F 48.2 °F 41% 29.92 in - SSW 8.9 mph - N/A   Clear
3:00 PM 71 °F 47 °F 32% 29.91 in 12 mi WSW 6.7 mph - -   Mostly Cloudy
3:00 PM 71.6 °F 46.4 °F 41% 29.92 in - SSW 8.9 mph - N/A   Clear
3:30 PM 71.6 °F 48.2 °F 43% 29.92 in - SW 8.9 mph - N/A   Clear
4:00 PM 71.6 °F 50.0 °F 46% 29.92 in - SSW 8.9 mph - N/A   Clear
4:30 PM 71.6 °F 48.2 °F 43% 29.89 in - SW 8.9 mph - N/A   Clear
5:00 PM 73.4 °F 44.6 °F 36% 29.89 in - SW 8.9 mph - N/A   Clear
5:30 PM 71.6 °F 46.4 °F 41% 29.89 in - South 6.7 mph - N/A   Clear
6:00 PM 73 °F 46 °F 27% 29.87 in 12 mi SSW 4.5 mph - -   Partly Cloudy
6:00 PM 73.4 °F 46.4 °F 38% 29.89 in - SW 6.7 mph - N/A   Clear
6:30 PM 73.4 °F 46.4 °F 38% 29.86 in - SW 6.7 mph - N/A   Clear
7:00 PM 71.6 °F 44.6 °F 38% 29.86 in - SSW 6.7 mph - N/A   Clear
7:30 PM 71.6 °F 46.4 °F 41% 29.86 in - South 6.7 mph - N/A   Clear
8:00 PM 69.8 °F 46.4 °F 43% 29.86 in - SSW 6.7 mph - N/A   Clear
8:30 PM 66.2 °F 46.4 °F 49% 29.86 in - SSW 4.5 mph - N/A   Clear
9:00 PM 66 °F 46 °F 36% 29.86 in 12 mi WSW 4.5 mph - -   Scattered Clouds
9:00 PM 64.4 °F 46.4 °F 52% 29.86 in - SSW 4.5 mph - N/A   Clear
9:30 PM 64.4 °F 46.4 °F 52% 29.86 in - SSW 4.5 mph - N/A   Clear
10:00 PM 62.6 °F 48.2 °F 59% 29.86 in - SSW 2.2 mph - N/A   Clear
10:30 PM 62.6 °F 46.4 °F 55% 29.86 in - Variable 2.2 mph - N/A   Clear
11:00 PM 59.0 °F 48.2 °F 67% 29.86 in - Variable 2.2 mph - N/A   Clear
11:30 PM 57.2 °F 48.2 °F 72% 29.86 in - Variable 2.2 mph - N/A   Clear